TimeEST,TemperatureF,Dew PointF,Humidity,Sea Level PressureIn,VisibilityMPH,Wind Direction,Wind SpeedMPH,Gust SpeedMPH,PrecipitationIn,Events,Conditions,WindDirDegrees,DateUTC
12:15 AM,39.2,19.4,45,30.28,10.0,NNW,6.9,-,N/A,,Clear,340,2012-12-06 05:15:00
12:55 AM,39.2,19.4,45,30.28,10.0,North,9.2,16.1,N/A,,Clear,350,2012-12-06 05:55:00
1:15 AM,37.4,19.4,48,30.27,10.0,North,10.4,-,N/A,,Clear,350,2012-12-06 06:15:00
1:35 AM,37.4,19.4,48,30.27,10.0,NNW,9.2,-,N/A,,Clear,340,2012-12-06 06:35:00
1:55 AM,37.4,19.4,48,30.27,10.0,NNW,9.2,16.1,N/A,,Clear,340,2012-12-06 06:55:00
2:15 AM,37.4,21.2,52,30.28,10.0,North,9.2,-,N/A,,Clear,350,2012-12-06 07:15:00
2:35 AM,37.4,19.4,48,30.29,10.0,North,8.1,16.1,N/A,,Clear,350,2012-12-06 07:35:00
2:55 AM,35.6,19.4,52,30.29,10.0,North,9.2,19.6,N/A,,Clear,350,2012-12-06 07:55:00
3:15 AM,35.6,19.4,52,30.30,10.0,North,10.4,16.1,N/A,,Clear,10,2012-12-06 08:15:00
3:35 AM,33.8,19.4,56,30.31,10.0,North,6.9,-,N/A,,Clear,10,2012-12-06 08:35:00
3:55 AM,33.8,19.4,56,30.31,10.0,North,9.2,-,N/A,,Clear,10,2012-12-06 08:55:00
4:15 AM,32.0,19.4,60,30.32,10.0,NNE,6.9,-,N/A,,Clear,20,2012-12-06 09:15:00
4:35 AM,33.8,17.6,52,30.31,10.0,North,8.1,-,N/A,,Clear,10,2012-12-06 09:35:00
4:55 AM,32.0,17.6,55,30.32,10.0,North,9.2,-,N/A,,Clear,10,2012-12-06 09:55:00
5:15 AM,30.2,17.6,60,30.32,10.0,North,5.8,-,N/A,,Clear,10,2012-12-06 10:15:00
5:35 AM,30.2,17.6,60,30.33,10.0,North,4.6,-,N/A,,Clear,10,2012-12-06 10:35:00
5:55 AM,30.2,17.6,60,30.34,10.0,North,4.6,-,N/A,,Clear,360,2012-12-06 10:55:00
6:15 AM,30.2,17.6,60,30.34,10.0,North,5.8,-,N/A,,Clear,360,2012-12-06 11:15:00
6:35 AM,30.2,19.4,64,30.34,10.0,North,5.8,-,N/A,,Clear,360,2012-12-06 11:35:00
6:55 AM,30.2,17.6,60,30.34,10.0,North,6.9,-,N/A,,Clear,360,2012-12-06 11:55:00
7:15 AM,32.0,17.6,55,30.35,10.0,North,6.9,-,N/A,,Clear,360,2012-12-06 12:15:00
7:35 AM,32.0,19.4,60,30.35,10.0,North,8.1,-,N/A,,Clear,360,2012-12-06 12:35:00
7:55 AM,33.8,19.4,56,30.36,10.0,North,10.4,-,N/A,,Clear,10,2012-12-06 12:55:00
8:15 AM,33.8,19.4,56,30.36,10.0,North,11.5,16.1,N/A,,Clear,10,2012-12-06 13:15:00
8:35 AM,33.8,19.4,56,30.36,10.0,North,10.4,19.6,N/A,,Clear,360,2012-12-06 13:35:00
8:55 AM,33.8,19.4,56,30.37,10.0,NNE,12.7,-,N/A,,Clear,20,2012-12-06 13:55:00
9:15 AM,35.6,19.4,52,30.38,10.0,North,10.4,-,N/A,,Clear,10,2012-12-06 14:15:00
9:35 AM,35.6,19.4,52,30.38,10.0,NNE,9.2,-,N/A,,Clear,30,2012-12-06 14:35:00
9:55 AM,35.6,19.4,52,30.38,10.0,North,10.4,-,N/A,,Clear,10,2012-12-06 14:55:00
10:15 AM,37.4,19.4,48,30.39,10.0,North,5.8,-,N/A,,Clear,10,2012-12-06 15:15:00
10:35 AM,37.4,19.4,48,30.38,10.0,East,5.8,-,N/A,,Clear,80,2012-12-06 15:35:00
10:55 AM,37.4,21.2,52,30.38,10.0,East,6.9,-,N/A,,Clear,80,2012-12-06 15:55:00
11:15 AM,39.2,21.2,49,30.36,10.0,East,8.1,-,N/A,,Clear,80,2012-12-06 16:15:00
11:35 AM,39.2,21.2,49,30.36,10.0,NNE,8.1,-,N/A,,Clear,30,2012-12-06 16:35:00
11:55 AM,39.2,21.2,49,30.35,10.0,NE,5.8,-,N/A,,Clear,50,2012-12-06 16:55:00
12:15 PM,39.2,23.0,52,30.34,10.0,NE,6.9,-,N/A,,Clear,50,2012-12-06 17:15:00
12:35 PM,39.2,24.8,56,30.33,10.0,SE,3.5,-,N/A,,Clear,140,2012-12-06 17:35:00
12:55 PM,39.2,24.8,56,30.32,10.0,ESE,6.9,-,N/A,,Clear,110,2012-12-06 17:55:00
1:15 PM,41.0,26.6,57,30.32,10.0,East,3.5,-,N/A,,Clear,90,2012-12-06 18:15:00
1:35 PM,39.2,26.6,61,30.32,10.0,East,4.6,-,N/A,,Clear,100,2012-12-06 18:35:00
1:55 PM,41.0,26.6,57,30.32,10.0,SE,3.5,-,N/A,,Clear,130,2012-12-06 18:55:00
2:15 PM,41.0,26.6,57,30.31,10.0,Calm,Calm,-,N/A,,Clear,0,2012-12-06 19:15:00
2:35 PM,39.2,26.6,61,30.31,10.0,ENE,6.9,-,N/A,,Clear,60,2012-12-06 19:35:00
2:55 PM,39.2,26.6,61,30.31,10.0,ENE,4.6,-,N/A,,Clear,70,2012-12-06 19:55:00
3:15 PM,39.2,26.6,61,30.31,10.0,Calm,Calm,-,N/A,,Clear,0,2012-12-06 20:15:00
3:35 PM,39.2,24.8,56,30.31,10.0,West,4.6,-,N/A,,Mostly Cloudy,280,2012-12-06 20:35:00
3:55 PM,37.4,24.8,60,30.31,10.0,West,4.6,-,N/A,,Overcast,260,2012-12-06 20:55:00
4:15 PM,39.2,26.6,61,30.32,10.0,Calm,Calm,-,N/A,,Overcast,0,2012-12-06 21:15:00
4:35 PM,37.4,26.6,65,30.31,10.0,SE,3.5,-,N/A,,Mostly Cloudy,140,2012-12-06 21:35:00
4:55 PM,37.4,26.6,65,30.31,10.0,Calm,Calm,-,N/A,,Clear,0,2012-12-06 21:55:00
5:15 PM,35.6,26.6,70,30.31,-9999.0,Calm,Calm,-,N/A,,Clear,0,2012-12-06 22:15:00
5:35 PM,35.6,26.6,70,30.32,-9999.0,Calm,Calm,-,N/A,,Clear,0,2012-12-06 22:35:00
5:55 PM,33.8,26.6,75,30.32,-9999.0,Calm,Calm,-,N/A,,Clear,0,2012-12-06 22:55:00
6:15 PM,33.8,26.6,75,30.32,-9999.0,Calm,Calm,-,N/A,,Clear,0,2012-12-06 23:15:00
6:35 PM,33.8,26.6,75,30.32,-9999.0,Calm,Calm,-,N/A,,Clear,0,2012-12-06 23:35:00
6:55 PM,32.0,24.8,75,30.32,-9999.0,Calm,Calm,-,N/A,,Clear,0,2012-12-06 23:55:00
7:15 PM,30.2,24.8,80,30.32,-9999.0,Calm,Calm,-,N/A,,Clear,0,2012-12-07 00:15:00
7:35 PM,30.2,24.8,80,30.32,-9999.0,Calm,Calm,-,N/A,,Clear,0,2012-12-07 00:35:00
7:55 PM,30.2,24.8,80,30.32,-9999.0,Calm,Calm,-,N/A,,Clear,0,2012-12-07 00:55:00
8:15 PM,30.2,24.8,80,30.32,-9999.0,Calm,Calm,-,N/A,,Clear,0,2012-12-07 01:15:00
8:35 PM,30.2,24.8,80,30.32,-9999.0,Calm,Calm,-,N/A,,Clear,0,2012-12-07 01:35:00
8:55 PM,30.2,24.8,80,30.31,-9999.0,Calm,Calm,-,N/A,,Clear,0,2012-12-07 01:55:00
9:35 PM,30.2,24.8,80,30.31,-9999.0,Calm,Calm,-,N/A,,Clear,0,2012-12-07 02:35:00
9:55 PM,30.2,26.6,86,30.31,-9999.0,Calm,Calm,-,N/A,,Unknown,0,2012-12-07 02:55:00
10:15 PM,30.2,24.8,80,30.30,-9999.0,Calm,Calm,-,N/A,,Clear,0,2012-12-07 03:15:00
10:35 PM,30.2,24.8,80,30.30,-9999.0,Calm,Calm,-,N/A,,Partly Cloudy,0,2012-12-07 03:35:00
10:55 PM,30.2,26.6,86,30.30,-9999.0,Calm,Calm,-,N/A,,Mostly Cloudy,0,2012-12-07 03:55:00
11:15 PM,30.2,26.6,86,30.30,-9999.0,Calm,Calm,-,N/A,,Overcast,0,2012-12-07 04:15:00
11:35 PM,32.0,28.4,87,30.30,-9999.0,Calm,Calm,-,N/A,,Overcast,0,2012-12-07 04:35:00
11:55 PM,33.8,30.2,87,30.30,-9999.0,Calm,Calm,-,N/A,,Overcast,0,2012-12-07 04:55:00